User: anonymous   Login
Location: Peebles
(55.6412°N, 3.1714°W)
Time: 02:35:50
(UTC+00:00)
Language:

Cosmos 1680 Rocket - Orbit

View from above orbital plane
View from above orbital plane
View from above satellite
View from above satellite

Ground track
Ground track

The orbit data is extracted from the following two-line orbital elements,

1 16012U 85079B   21333.53029903  .00000041  00000-0  22852-4 0  9990
2 16012  74.0611  32.0467 0016125 251.5038 108.4363 14.36396656897077
Epoch (UTC): 29 November 2021 12:43:37
Eccentricity: 0.0016125
inclination: 74.0611°
perigee height: 759 km
apogee height: 782 km
right ascension of ascending node: 32.0467°
argument of perigee: 251.5038°
revolutions per day: 14.36396656
mean anomaly at epoch: 108.4363°
orbit number at epoch: 89707

The dashed part of the orbit path shows where the satellite is in the earth's shadow,  

DLR